Dewpoint
62 62 63 63 64 64 64 64 64 64 64 64 64 64 64 64 63 62 62 61 60 61 60 60 59 59 58 59 59 60 61 61 63 64 64 64 65 66 67 67 67 67 65 64 64 63 62 62 62 62 62 61 61 60 62 61 63 64 64 63 63 62 62 62 61 61 60 60 60 60 59 59 59 58 58 58 58 58 57 57 57 57 57 56 56
62 63 63 63 63 63 63 63 63 63 64 64 64 63 63 63 63 62 62 61 61 61 61 60 59 58 58 58 59 60 60 61 62 63 64 64 64 64 67 67 66 66 66 64 64 64 63 62 62 62 62 62 61 61 60 60 60 64 64 64 63 63 62 62 61 61 61 61 60 59 59 59 58 58 58 58 58 57 57 57 57 57 57 56 56
62 62 63 63 62 62 62 63 63 63 63 63 63 63 63 63 63 62 61 61 61 60 60 60 58 59 59 59 58 60 60 61 62 63 64 63 62 63 65 67 66 66 66 65 66 64 64 63 62 62 62 61 61 61 61 61 61 62 65 65 64 63 62 62 61 61 61 61 60 60 60 59 59 58 58 58 57 57 57 57 57 56 56 56 56
63 63 63 62 62 62 62 63 63 63 63 62 62 64 63 63 63 62 62 61 60 60 59 59 59 60 60 60 59 60 60 60 61 62 63 63 62 62 63 64 66 66 66 65 66 66 64 64 64 63 63 62 62 62 62 61 61 60 62 65 64 63 62 62 62 61 61 61 61 60 60 59 59 59 58 58 58 57 57 57 56 56 56 56 56
62 63 64 62 62 62 62 63 64 62 62 63 63 63 63 62 61 62 61 60 59 59 61 60 60 61 61 61 60 60 60 60 61 61 61 62 62 62 62 63 63 66 66 66 66 66 66 65 64 64 63 62 62 62 62 62 61 60 61 65 64 64 63 63 62 62 61 61 60 60 60 60 59 59 59 58 57 57 57 57 56 56 56 56 56
62 62 62 61 61 61 61 62 63 62 62 62 63 62 62 62 60 60 63 59 59 59 60 61 60 61 61 61 61 60 60 60 60 61 60 61 62 62 62 63 63 64 64 67 66 66 66 66 65 65 65 63 63 62 62 62 62 61 61 64 65 65 64 64 63 62 62 62 61 61 60 60 59 59 59 58 58 57 57 57 56 56 56 56 55
62 61 61 61 61 61 61 63 63 63 62 62 62 61 61 61 60 60 59 60 61 61 60 60 60 60 60 61 61 61 61 61 61 60 61 60 60 61 62 62 63 63 64 64 66 67 65 66 67 66 65 64 63 62 62 62 62 62 61 61 65 65 65 64 64 64 63 62 62 62 61 61 60 60 59 58 58 57 57 57 57 56 56 56 56
62 62 61 61 61 61 62 62 63 62 63 62 62 61 61 61 61 60 59 60 61 60 60 60 60 60 60 61 60 61 61 61 61 60 60 60 61 61 61 61 61 62 65 63 64 65 66 66 66 66 67 66 64 64 64 63 62 62 62 61 63 64 64 64 64 64 63 63 62 62 61 61 60 60 59 59 58 58 57 57 57 57 56 56 56
62 62 61 61 61 62 62 62 63 63 62 62 62 62 62 61 60 60 60 60 60 60 60 60 60 60 60 60 60 61 61 61 61 61 61 60 60 61 61 61 62 66 63 63 64 64 65 66 66 66 66 66 66 65 65 65 64 63 63 62 62 64 64 63 63 64 64 64 63 62 61 61 61 60 60 59 58 58 57 57 57 57 56 56 56
61 62 61 63 63 62 61 62 62 62 62 62 62 62 61 60 60 61 61 61 60 60 60 60 61 60 60 60 61 61 61 61 61 63 61 61 61 61 60 60 62 63 63 63 64 64 64 65 66 66 66 65 65 67 65 65 65 64 63 64 63 63 64 64 63 63 64 64 64 63 62 61 61 61 61 60 59 59 58 57 57 57 56 56 56
62 62 61 63 63 61 61 62 62 62 62 61 61 60 60 60 61 60 61 60 60 60 60 61 62 62 61 61 61 61 61 61 60 60 60 62 62 63 61 61 61 61 62 63 63 63 64 64 64 64 65 66 66 66 67 66 66 65 64 64 65 64 64 64 64 63 63 64 65 64 63 62 61 61 61 61 60 59 59 58 57 57 56 56 56
61 61 62 62 61 61 61 62 62 62 61 61 60 60 60 60 60 60 60 60 60 60 61 60 60 59 59 59 59 61 61 60 59 59 59 60 61 61 61 62 60 60 60 62 62 62 63 63 64 64 65 65 66 66 66 67 66 67 66 64 65 65 65 64 64 64 63 63 64 64 64 62 62 61 61 61 61 60 59 59 58 57 57 57 57
62 61 61 63 62 61 61 61 62 61 61 60 60 60 60 59 60 59 59 58 58 59 60 60 58 56 56 55 56 61 62 59 58 58 59 58 59 60 61 60 58 59 60 61 61 62 62 62 63 64 64 65 65 66 65 65 66 67 66 66 66 66 66 65 64 64 64 63 63 64 64 63 62 62 61 61 61 61 60 59 58 58 58 57 57
62 61 61 62 62 62 61 61 62 61 61 61 61 62 61 60 59 59 59 58 58 60 59 57 55 54 54 53 53 56 58 57 59 60 60 58 58 57 58 58 57 58 60 61 61 61 62 62 61 62 63 64 64 64 65 65 65 66 66 66 66 66 65 65 65 65 65 65 64 64 65 64 63 62 62 62 61 61 61 60 59 59 58 58 58
60 62 62 62 62 61 61 61 61 61 61 61 60 60 60 59 58 58 58 59 59 59 58 57 56 56 54 52 50 48 52 53 55 59 61 59 57 57 59 58 57 59 59 60 61 61 62 62 62 62 62 63 63 64 64 65 65 65 66 67 66 67 67 66 65 65 65 65 65 64 65 65 64 63 63 62 62 62 62 61 60 59 59 59 58
59 60 60 60 60 60 60 61 61 62 62 61 60 60 60 59 58 59 58 57 56 56 59 58 56 55 52 50 48 47 45 51 52 55 59 59 58 57 59 60 57 60 59 60 61 61 62 63 62 62 62 62 62 62 63 64 64 65 65 64 65 67 67 67 66 66 66 66 66 65 65 65 65 64 63 63 62 62 62 62 61 60 60 59 59
56 57 60 59 58 58 59 59 59 60 61 60 60 61 61 59 59 58 56 57 57 58 58 59 59 57 54 50 47 46 45 50 51 52 56 56 56 58 61 59 59 59 59 59 61 62 62 62 62 63 62 61 62 62 62 62 63 65 65 65 65 66 66 67 67 66 65 66 66 66 65 65 66 65 64 64 63 63 62 62 62 61 60 60 60
52 54 57 58 57 57 57 58 58 59 59 58 60 61 61 60 59 58 57 57 57 57 56 58 59 59 56 54 54 50 49 54 52 48 53 56 56 57 58 58 58 58 58 59 58 58 61 61 62 61 60 60 60 61 62 62 63 63 63 63 63 64 64 65 67 67 66 65 66 66 66 65 66 65 65 64 64 63 63 63 62 62 62 61 61
50 51 53 54 54 53 54 55 57 57 60 58 58 59 60 61 60 59 59 58 57 55 56 56 56 57 57 58 59 56 55 53 51 49 48 51 52 54 55 58 58 58 58 57 57 56 56 57 57 60 61 62 62 63 62 62 63 62 63 63 62 60 60 60 64 66 67 65 65 65 66 66 66 65 65 65 64 64 64 63 63 63 62 62 61
50 51 52 54 54 53 54 55 55 56 57 55 55 56 56 57 57 58 58 57 56 56 55 55 55 55 57 56 56 57 56 55 53 51 48 47 49 51 53 52 56 57 57 58 58 57 57 56 56 56 58 58 59 60 61 62 62 63 62 60 60 59 59 58 57 58 63 67 65 64 65 66 66 65 65 65 65 64 64 64 64 63 63 62 62
49 50 51 53 54 53 53 54 54 55 56 55 54 54 53 53 54 54 54 55 55 54 55 53 53 54 55 55 55 55 55 55 55 52 49 46 47 47 46 48 51 49 50 50 50 53 55 56 57 56 56 55 54 56 60 61 62 62 62 60 60 58 57 57 55 54 54 60 65 66 65 65 65 64 65 64 64 65 64 64 64 64 64 63 63
48 49 49 51 52 53 53 52 52 53 53 51 52 52 51 51 51 52 52 51 50 52 53 51 52 53 55 55 54 53 50 47 49 52 51 49 48 45 45 42 43 45 48 46 46 46 47 47 46 46 48 49 49 52 56 59 60 61 61 59 58 57 57 56 53 53 54 56 60 63 65 64 64 65 65 65 65 65 64 65 65 64 64 64 64
48 48 49 50 51 53 52 51 52 54 52 50 50 50 49 49 49 49 48 48 48 48 48 49 50 51 51 52 52 51 49 45 44 48 47 43 42 43 44 45 42 41 43 46 46 43 43 44 43 42 43 43 44 46 54 55 57 59 59 58 58 57 57 56 54 53 55 56 57 59 63 64 65 65 65 65 65 65 65 65 65 65 65 65 64
47 48 48 49 51 50 51 49 50 49 50 50 50 50 49 49 48 48 47 47 48 47 46 46 47 47 46 47 47 47 47 46 46 46 44 43 43 41 42 42 42 42 43 45 46 43 42 41 41 41 41 42 43 45 50 51 50 57 59 58 57 55 54 54 53 53 53 54 56 57 61 64 64 64 64 65 65 65 65 64 64 65 65 65 65
46 47 47 47 49 47 48 48 49 50 50 49 48 48 48 48 47 47 46 46 45 45 44 44 45 44 44 44 45 46 46 46 47 46 46 45 43 41 42 42 40 42 44 43 42 43 43 41 40 40 41 42 43 44 45 46 45 52 56 57 55 52 51 51 51 51 51 51 52 55 58 62 65 65 65 64 64 64 64 64 62 59 60 61 62
46 46 47 47 47 48 48 48 48 48 48 48 48 48 48 47 47 47 46 46 45 45 45 45 44 43 43 43 44 45 45 45 45 45 44 43 42 41 41 41 41 42 43 43 43 40 41 43 41 40 41 43 43 44 44 43 44 50 52 53 54 51 50 50 50 48 47 48 49 52 54 56 59 63 63 64 64 63 61 58 57 57 57 57 57
47 46 50 47 48 48 48 48 48 48 48 49 50 49 49 49 48 48 48 46 45 46 44 44 44 43 43 44 45 44 44 44 44 45 45 44 44 42 40 37 37 38 41 41 42 42 42 42 43 40 41 44 44 44 44 42 46 50 49 46 48 51 49 49 49 49 47 47 47 48 50 51 52 53 54 55 54 54 56 58 57 55 55 55 56
46 48 48 48 48 48 48 47 48 48 48 49 49 49 47 47 46 46 46 47 44 44 44 44 44 43 43 43 44 43 43 44 45 44 44 45 45 44 43 39 36 35 38 39 40 40 43 40 42 42 40 42 44 44 45 42 43 48 47 43 44 45 46 48 48 48 48 47 47 47 47 48 49 50 51 51 54 54 55 56 55 55 54 54 56
48 50 48 47 48 47 47 47 47 48 48 48 48 47 47 47 46 46 46 45 45 44 44 44 44 44 43 43 43 44 44 44 45 46 46 45 45 44 43 42 40 38 36 35 36 39 42 43 38 39 41 42 44 44 41 39 44 44 41 42 42 42 46 46 46 46 46 46 44 45 45 46 47 49 51 52 53 54 54 53 53 53 53 54 55
49 50 48 47 47 51 47 47 47 47 48 47 47 47 46 46 46 46 46 46 46 46 46 45 44 45 46 44 44 44 46 45 45 46 46 45 44 44 44 44 42 39 38 36 37 39 41 42 42 40 41 41 43 42 40 39 46 42 40 40 40 43 46 45 45 45 45 45 44 44 44 44 45 46 48 48 49 50 51 51 51 51 51 52 52
50 50 47 47 48 47 47 46 46 47 47 47 47 47 46 46 46 47 46 46 46 45 45 44 44 44 44 44 43 43 43 43 44 44 45 46 44 43 44 44 44 42 41 39 35 39 42 39 41 43 42 42 42 40 40 40 42 42 39 39 39 45 45 43 45 45 45 45 44 44 45 45 45 46 46 47 48 48 48 49 49 50 51 52 51
49 50 48 48 49 47 47 47 47 47 47 46 47 47 46 47 47 46 45 45 45 44 44 45 46 44 43 42 42 41 42 41 41 43 42 43 44 44 44 44 44 42 42 39 37 39 42 41 42 42 42 41 39 37 37 37 38 44 38 39 40 44 40 40 44 44 45 45 44 44 45 45 44 44 44 45 45 47 47 47 49 49 49 49 50
50 50 49 48 49 48 47 48 47 48 47 47 47 46 46 46 46 46 45 45 45 43 45 43 44 43 43 41 41 42 42 40 41 43 43 41 40 42 43 41 41 42 42 40 37 38 40 42 43 41 40 39 36 36 35 36 35 38 40 38 40 39 39 39 40 43 45 44 44 44 44 44 43 43 43 43 44 44 46 46 47 47 47 46 46
51 51 49 48 49 48 47 47 47 47 47 47 47 46 46 47 46 46 46 46 44 44 43 43 43 44 43 43 43 43 42 41 42 42 41 39 38 39 40 40 40 41 41 38 38 37 36 39 39 38 35 38 34 33 35 34 35 38 36 36 37 38 38 38 38 40 44 44 43 43 44 43 43 43 42 42 43 43 44 44 44 45 46 45 45
51 51 50 49 49 48 47 47 47 47 48 47 47 47 46 46 47 46 47 46 45 44 43 42 43 44 42 43 42 43 43 42 42 42 41 40 40 39 40 40 39 40 40 38 34 34 36 35 39 36 34 34 35 31 32 34 36 36 35 35 36 37 38 37 37 37 41 44 43 43 43 43 42 42 41 42 42 42 42 43 43 44 44 45 45
50 51 51 50 50 49 48 48 48 48 48 48 47 46 46 45 46 46 46 46 46 45 44 43 43 44 42 40 42 43 43 41 42 42 42 42 40 39 38 39 38 38 39 38 37 34 36 30 33 37 33 32 32 31 32 33 33 34 34 35 35 36 36 36 36 36 39 44 43 43 43 42 41 41 41 41 41 42 41 41 42 43 44 45 45
51 52 52 51 50 50 50 49 48 48 48 48 48 47 46 46 46 46 46 45 46 46 45 44 45 43 43 41 41 43 42 41 42 41 42 41 39 37 36 37 37 39 38 37 36 33 29 27 31 36 35 31 31 33 32 32 32 32 33 34 35 36 36 37 37 37 41 43 42 42 41 40 40 40 40 40 41 41 40 41 42 42 44 44 44
54 54 53 54 54 54 53 51 50 49 49 49 48 48 47 47 47 46 47 46 45 45 46 45 45 44 42 42 42 44 42 41 41 42 42 40 36 35 34 35 36 36 35 35 34 32 29 29 30 31 33 32 31 32 32 33 33 33 33 34 35 36 36 36 37 37 39 41 40 38 40 38 38 39 40 40 40 40 40 41 41 42 43 43 43
54 54 54 54 54 54 53 52 52 51 50 50 49 49 48 48 48 47 46 47 47 45 45 46 45 44 43 42 43 44 42 41 41 42 42 39 38 36 37 35 33 32 33 32 31 31 31 30 31 31 32 34 32 30 31 33 33 33 33 34 34 34 36 36 36 37 39 41 39 38 38 38 39 37 39 39 39 40 40 40 41 42 42 42 42
53 54 54 54 55 54 54 53 53 53 52 51 50 50 49 49 48 47 47 47 47 46 46 46 45 45 44 43 43 44 43 42 41 42 40 37 36 35 36 35 34 31 31 33 32 31 31 32 30 29 32 32 31 33 34 32 32 32 34 35 34 34 35 36 36 36 39 40 37 36 37 37 36 36 37 38 38 40 40 40 41 41 42 41 41
55 55 54 53 52 52 52 52 53 53 53 52 52 51 50 50 49 48 48 48 48 47 46 46 45 45 45 44 43 44 46 46 45 44 41 39 34 30 34 35 33 32 33 33 34 32 32 32 31 32 31 30 31 31 31 31 31 32 34 35 34 35 35 36 35 36 40 36 36 35 34 35 34 34 34 34 35 38 37 40 39 40 40 40 40
54 54 54 53 52 51 52 52 53 52 52 52 52 50 49 51 50 50 49 48 48 47 47 47 46 46 45 45 46 48 47 47 44 41 39 38 38 34 30 34 33 30 31 31 32 32 32 30 29 30 30 30 30 31 31 32 33 34 34 34 34 35 35 35 35 36 39 35 35 34 33 34 34 34 34 34 36 37 36 36 36 38 40 40 40
53 52 52 52 52 51 51 52 52 53 53 53 49 47 45 46 50 50 50 50 49 48 47 47 47 47 46 44 43 47 47 46 43 39 38 37 37 37 37 37 36 32 31 30 30 32 34 31 31 30 29 30 30 31 31 32 34 34 34 34 34 35 34 34 32 34 37 35 34 33 32 34 34 32 32 35 36 36 35 36 38 39 40 40 40
50 50 51 52 52 52 51 51 51 52 52 50 47 46 45 43 45 50 50 50 49 48 48 47 46 46 45 43 44 45 43 41 37 34 35 36 35 36 36 36 36 37 37 34 34 32 31 30 30 30 30 30 30 31 32 33 34 34 34 34 33 33 33 32 32 32 34 36 33 32 32 33 34 34 34 35 35 36 35 37 39 39 40 41 42
51 51 51 51 51 50 50 51 51 51 50 44 41 43 44 43 43 45 49 49 48 48 48 47 46 45 43 43 43 42 41 43 40 31 31 33 36 36 36 36 36 36 34 34 35 36 33 30 30 30 30 30 30 33 34 34 35 33 34 32 33 32 33 32 32 32 33 35 34 32 31 32 33 33 33 35 35 35 36 37 38 39 40 42 42
50 51 51 51 50 50 51 50 49 43 42 40 38 39 41 42 41 42 46 46 46 46 46 46 45 43 42 41 41 40 40 40 35 33 34 33 35 35 34 33 34 37 37 36 35 35 37 33 30 29 32 34 33 34 36 36 34 33 32 31 31 31 31 31 32 33 33 35 33 32 31 30 32 33 33 33 34 35 36 37 38 40 41 41 42
49 49 49 49 49 50 49 47 43 38 37 38 37 39 40 41 41 41 45 43 43 42 43 43 43 41 42 42 40 39 40 41 41 36 36 37 37 38 37 37 36 36 37 36 36 36 36 34 33 32 33 34 34 34 34 34 34 33 33 32 32 33 34 34 33 32 32 34 33 31 30 30 32 32 32 32 34 34 35 37 38 41 41 41 41
42 43 43 44 45 44 43 40 39 38 35 37 38 39 39 39 41 43 41 41 41 40 40 41 42 42 42 42 42 41 42 41 38 37 39 40 37 37 35 34 34 34 35 38 37 38 37 34 34 33 33 34 36 35 35 34 33 33 35 35 33 32 31 30 29 30 30 32 33 31 30 30 31 32 31 33 34 34 35 35 38 41 41 41 41
41 41 42 43 43 42 41 39 37 35 34 36 38 38 39 39 40 41 41 40 39 39 39 39 40 41 40 39 40 38 36 36 37 36 37 37 35 34 32 31 32 31 31 33 36 36 36 35 34 34 34 35 35 35 35 35 35 34 32 30 29 28 29 29 29 29 29 29 32 32 31 31 32 31 32 33 34 34 35 35 36 40 40 40 41
40 40 41 40 42 41 41 40 37 35 34 36 38 38 38 39 40 40 39 38 37 38 37 36 36 37 42 44 39 35 34 35 35 35 35 35 32 32 31 31 30 29 30 31 33 34 35 35 34 34 34 34 35 35 35 35 35 36 31 30 30 29 30 30 29 29 30 30 32 33 30 31 32 32 32 33 32 33 34 35 34 37 38 38 39
39 39 40 40 40 39 38 38 42 35 33 37 37 37 37 38 39 39 39 37 36 35 35 34 33 33 34 38 39 36 34 35 34 34 33 33 32 31 31 30 30 29 30 30 31 31 30 31 30 32 32 33 34 33 35 35 35 36 34 32 31 29 30 30 30 30 29 28 31 33 31 30 30 32 32 32 31 33 33 34 35 36 37 37 38